,,,PA_Meas_PMT16A,,PR_Meas_QMR101_102,,RH_Meas_QMH101,,SR_Meas_QMS101,,TA_Meas_QMH101,,GenWind,,GenWind,
date,time,status,PA,status,PR,status,RH,status,SR,status,TA,status,DirAvg,status,SpdAvg,
2010-08-06, 00:00:05,VALID,1000.6,VALID,0,VALID,89.4878,VALID,0,VALID,23.4475,VALID,179,VALID,0,
2010-08-06, 00:01:05,VALID,1000.57,VALID,0,VALID,89.2437,VALID,0,VALID,23.4866,VALID,179,VALID,0,
2010-08-06, 00:02:05,VALID,1000.6,VALID,0,VALID,88.8088,VALID,0,VALID,23.5646,VALID,170,VALID,0,
2010-08-06, 00:03:05,VALID,1000.54,VALID,0,VALID,88.1679,VALID,0,VALID,23.6622,VALID,141,VALID,1.33945,
2010-08-06, 00:04:05,VALID,1000.57,VALID,0,VALID,87.3592,VALID,0,VALID,23.7793,VALID,159,VALID,0.875,
2010-08-06, 00:05:05,VALID,1000.55,VALID,0,VALID,87.054,VALID,0,VALID,23.8945,VALID,189,VALID,1.56133,
2010-08-06, 00:06:05,VALID,1000.53,VALID,0,VALID,86.1918,VALID,0,VALID,24.072,VALID,178,VALID,1.33984,
2010-08-06, 00:07:05,VALID,1000.52,VALID,0,VALID,85.5357,VALID,0,VALID,24.1891,VALID,181,VALID,0.911719,
2010-08-06, 00:08:05,VALID,1000.51,VALID,0,VALID,85.3297,VALID,0,VALID,24.2281,VALID,181,VALID,0.839063,
2010-08-06, 00:09:05,VALID,1000.48,VALID,0,VALID,84.9634,VALID,0,VALID,24.2671,VALID,177,VALID,0.622266,
2010-08-06, 00:10:05,VALID,1000.43,VALID,0,VALID,84.231,VALID,0,VALID,24.2866,VALID,176,VALID,0.691406,
2010-08-06, 00:11:05,VALID,1000.43,VALID,0,VALID,84.8566,VALID,0,VALID,24.3257,VALID,186,VALID,0.416797,
2010-08-06, 00:12:05,VALID,1000.38,VALID,0,VALID,85.9095,VALID,0,VALID,24.3043,VALID,169,VALID,0.598047,
2010-08-06, 00:13:05,VALID,1000.36,VALID,0,VALID,86.4207,VALID,0,VALID,24.2281,VALID,360,VALID,0.912891,
2010-08-06, 00:14:05,VALID,1000.34,VALID,0,VALID,87.3134,VALID,0,VALID,24.0701,VALID,360,VALID,0.964844,
2010-08-06, 00:15:05,VALID,1000.33,VALID,0,VALID,88.0458,VALID,0,VALID,23.9744,VALID,356,VALID,1.01797,
2010-08-06, 00:16:05,VALID,1000.3,VALID,0,VALID,88.4044,VALID,0,VALID,23.8573,VALID,346,VALID,0.615625,
2010-08-06, 00:17:05,VALID,1000.32,VALID,0,VALID,88.6638,VALID,0,VALID,23.7793,VALID,347,VALID,0.451953,
2010-08-06, 00:18:05,VALID,1000.27,VALID,0,VALID,89.0224,VALID,0,VALID,23.7402,VALID,346,VALID,0.530859,
2010-08-06, 00:19:05,VALID,1000.27,VALID,0,VALID,89.3047,VALID,0,VALID,23.7012,VALID,346,VALID,0.506641,
2010-08-06, 00:20:05,VALID,1000.22,VALID,0,VALID,89.6099,VALID,0,VALID,23.6622,VALID,346,VALID,0.695313,
2010-08-06, 00:21:05,VALID,1000.18,VALID,0,VALID,89.7472,VALID,0,VALID,23.6445,VALID,347,VALID,0.703906,
2010-08-06, 00:22:05,VALID,1000.13,VALID,0,VALID,89.0911,VALID,0,VALID,23.6036,VALID,7,VALID,0.830078,
2010-08-06, 00:23:05,VALID,1000.06,VALID,0,VALID,88.8011,VALID,0,VALID,23.6427,VALID,20,VALID,0.966797,
2010-08-06, 00:24:05,VALID,1000.06,VALID,0,VALID,88.3968,VALID,0,VALID,23.6622,VALID,49,VALID,1.14805,
2010-08-06, 00:25:05,VALID,1000.04,VALID,0,VALID,88.1908,VALID,0,VALID,23.6817,VALID,44,VALID,1.04922,
2010-08-06, 00:26:05,VALID,1000.01,VALID,0,VALID,88.3739,VALID,0,VALID,23.6817,VALID,47,VALID,1.22617,
2010-08-06, 00:27:05,VALID,999.994,VALID,0,VALID,88.5341,VALID,0,VALID,23.6622,VALID,43,VALID,1.04766,
2010-08-06, 00:28:05,VALID,999.988,VALID,0,VALID,88.618,VALID,0,VALID,23.6427,VALID,52,VALID,0.870313,
2010-08-06, 00:29:05,VALID,999.998,VALID,0,VALID,88.5875,VALID,0,VALID,23.6036,VALID,47,VALID,0.898828,
2010-08-06, 00:30:05,VALID,999.966,VALID,0,VALID,88.7172,VALID,0,VALID,23.5646,VALID,47,VALID,0.678906,
2010-08-06, 00:31:05,VALID,999.952,VALID,0,VALID,88.8317,VALID,0,VALID,23.5646,VALID,47,VALID,0.0289063,
2010-08-06, 00:32:05,VALID,999.984,VALID,0,VALID,88.9232,VALID,0,VALID,23.5451,VALID,47,VALID,0,
2010-08-06, 00:33:05,VALID,999.957,VALID,0,VALID,89.0453,VALID,0,VALID,23.5256,VALID,47,VALID,0,
2010-08-06, 00:34:05,VALID,999.943,VALID,0,VALID,89.1368,VALID,0,VALID,23.4866,VALID,47,VALID,0,
2010-08-06, 00:35:05,VALID,999.939,VALID,0,VALID,89.1903,VALID,0,VALID,23.4671,VALID,47,VALID,0,
2010-08-06, 00:36:04,VALID,999.909,VALID,0,VALID,89.4115,VALID,0,VALID,23.4475,VALID,47,VALID,0,
2010-08-06, 00:37:04,VALID,999.894,VALID,0,VALID,89.6404,VALID,0,VALID,23.4475,VALID,47,VALID,0,
2010-08-06, 00:38:04,VALID,999.894,VALID,0,VALID,89.7243,VALID,0,VALID,23.4475,VALID,47,VALID,0,
2010-08-06, 00:39:04,VALID,999.875,VALID,0,VALID,89.8083,VALID,0,VALID,23.428,VALID,47,VALID,0,
2010-08-06, 00:40:04,VALID,999.885,VALID,0,VALID,89.8159,VALID,0,VALID,23.4475,VALID,47,VALID,0,
2010-08-06, 00:41:04,VALID,999.853,VALID,0,VALID,89.8617,VALID,0,VALID,23.4475,VALID,47,VALID,0.741797,
2010-08-06, 00:42:04,VALID,999.85,VALID,0,VALID,89.9761,VALID,0,VALID,23.4475,VALID,47,VALID,0.755859,
2010-08-06, 00:43:04,VALID,999.853,VALID,0,VALID,90.0448,VALID,0,VALID,23.428,VALID,47,VALID,0.672266,
2010-08-06, 00:44:04,VALID,999.824,VALID,0,VALID,90.144,VALID,0,VALID,23.4085,VALID,47,VALID,0.543359,
2010-08-06, 00:45:04,VALID,999.793,VALID,0,VALID,90.2889,VALID,0,VALID,23.3695,VALID,47,VALID,0.447266,
2010-08-06, 00:46:04,VALID,999.822,VALID,0,VALID,90.3728,VALID,0,VALID,23.35,VALID,47,VALID,0.427344,
2010-08-06, 00:47:04,VALID,999.825,VALID,0,VALID,90.3881,VALID,0,VALID,23.3305,VALID,47,VALID,0.298438,
2010-08-06, 00:48:04,VALID,999.79,VALID,0,VALID,90.4263,VALID,0,VALID,23.311,VALID,42,VALID,0.659766,
2010-08-06, 00:49:04,VALID,999.765,VALID,0,VALID,90.5483,VALID,0,VALID,23.2915,VALID,27,VALID,0.721094,
2010-08-06, 00:50:04,VALID,999.773,VALID,0,VALID,90.6017,VALID,0,VALID,23.2915,VALID,15,VALID,0.616016,
2010-08-06, 00:51:04,VALID,999.721,VALID,0,VALID,90.6551,VALID,0,VALID,23.2719,VALID,15,VALID,0.764063,
2010-08-06, 00:52:04,VALID,999.717,VALID,0,VALID,90.6628,VALID,0,VALID,23.2915,VALID,15,VALID,0.477344,
2010-08-06, 00:53:04,VALID,999.72,VALID,0,VALID,90.6628,VALID,0,VALID,23.2719,VALID,15,VALID,0.553906,
2010-08-06, 00:54:04,VALID,999.73,VALID,0,VALID,90.7162,VALID,0,VALID,23.2524,VALID,15,VALID,0.334766,
2010-08-06, 00:55:04,VALID,999.731,VALID,0,VALID,90.7467,VALID,0,VALID,23.2507,VALID,15,VALID,0.296094,
2010-08-06, 00:56:04,VALID,999.724,VALID,0,VALID,90.8154,VALID,0,VALID,23.2329,VALID,15,VALID,0,
2010-08-06, 00:57:04,VALID,999.735,VALID,0,VALID,90.8001,VALID,0,VALID,23.2134,VALID,15,VALID,0,
2010-08-06, 00:58:04,VALID,999.701,VALID,0,VALID,90.8154,VALID,0,VALID,23.2152,VALID,15,VALID,0,
2010-08-06, 00:59:04,VALID,999.715,VALID,0,VALID,90.8001,VALID,0,VALID,23.2152,VALID,15,VALID,0,
2010-08-06, 01:00:04,VALID,999.726,VALID,0,VALID,90.7314,VALID,0,VALID,23.1744,VALID,15,VALID,0,
2010-08-06, 01:01:04,VALID,999.724,VALID,0,VALID,90.6551,VALID,0,VALID,23.1744,VALID,15,VALID,0,
2010-08-06, 01:02:04,VALID,999.704,VALID,0,VALID,90.5483,VALID,0,VALID,23.1549,VALID,22,VALID,0,
2010-08-06, 01:03:04,VALID,999.743,VALID,0,VALID,90.4568,VALID,0,VALID,23.1354,VALID,22,VALID,0,
2010-08-06, 01:04:04,VALID,999.75,VALID,0,VALID,90.4034,VALID,0,VALID,23.1354,VALID,22,VALID,0,
2010-08-06, 01:05:04,VALID,999.743,VALID,0,VALID,90.5026,VALID,0,VALID,23.1159,VALID,44,VALID,0,
2010-08-06, 01:06:04,VALID,999.778,VALID,0,VALID,90.7085,VALID,0,VALID,23.1159,VALID,46,VALID,0,
2010-08-06, 01:07:04,VALID,999.763,VALID,0,VALID,90.8459,VALID,0,VALID,23.1159,VALID,46,VALID,0,
2010-08-06, 01:08:04,VALID,999.777,VALID,0,VALID,90.8611,VALID,0,VALID,23.1141,VALID,46,VALID,0,
2010-08-06, 01:09:04,VALID,999.776,VALID,0,VALID,90.8917,VALID,0,VALID,23.1354,VALID,46,VALID,0,
2010-08-06, 01:10:04,VALID,999.764,VALID,0,VALID,90.968,VALID,0,VALID,23.1159,VALID,46,VALID,0,
2010-08-06, 01:11:04,VALID,999.726,VALID,0,VALID,91.2121,VALID,0,VALID,23.1354,VALID,46,VALID,0,
2010-08-06, 01:12:04,VALID,999.72,VALID,0,VALID,91.4563,VALID,0,VALID,23.1354,VALID,46,VALID,0,
2010-08-06, 01:13:04,VALID,999.704,VALID,0,VALID,91.4944,VALID,0,VALID,23.1354,VALID,46,VALID,0,
2010-08-06, 01:14:04,VALID,999.699,VALID,0,VALID,91.6165,VALID,0,VALID,23.1354,VALID,46,VALID,0,
2010-08-06, 01:15:04,VALID,999.681,VALID,0,VALID,91.5631,VALID,0,VALID,23.1354,VALID,46,VALID,0,
2010-08-06, 01:16:04,VALID,999.631,VALID,0,VALID,91.502,VALID,0,VALID,23.1159,VALID,46,VALID,0,
2010-08-06, 01:17:04,VALID,999.656,VALID,0,VALID,91.5402,VALID,0,VALID,23.0556,VALID,46,VALID,0,
2010-08-06, 01:18:04,VALID,999.636,VALID,0,VALID,91.6851,VALID,0,VALID,23.0769,VALID,46,VALID,0,
2010-08-06, 01:19:04,VALID,999.608,VALID,0,VALID,91.8148,VALID,0,VALID,23.0573,VALID,46,VALID,0,
2010-08-06, 01:20:04,VALID,999.591,VALID,0,VALID,91.8988,VALID,0,VALID,23.0573,VALID,46,VALID,0,
2010-08-06, 01:21:04,VALID,999.571,VALID,0,VALID,91.9903,VALID,0,VALID,23.0183,VALID,46,VALID,0,
2010-08-06, 01:22:04,VALID,999.578,VALID,0,VALID,92.0361,VALID,0,VALID,23.0183,VALID,46,VALID,0,
2010-08-06, 01:23:04,VALID,999.6,VALID,0,VALID,92.1124,VALID,0,VALID,23.0183,VALID,46,VALID,0,
2010-08-06, 01:24:04,VALID,999.579,VALID,0,VALID,92.1582,VALID,0,VALID,23.0183,VALID,46,VALID,0,
2010-08-06, 01:25:04,VALID,999.566,VALID,0,VALID,92.2345,VALID,0,VALID,22.9988,VALID,46,VALID,0,
2010-08-06, 01:26:04,VALID,999.564,VALID,0,VALID,92.3031,VALID,0,VALID,23.0183,VALID,46,VALID,0,
2010-08-06, 01:27:04,VALID,999.554,VALID,0,VALID,92.3794,VALID,0,VALID,23.0378,VALID,46,VALID,0,
2010-08-06, 01:28:04,VALID,999.543,VALID,0,VALID,92.4634,VALID,0,VALID,23.0361,VALID,46,VALID,0,
2010-08-06, 01:29:04,VALID,999.537,VALID,0,VALID,92.532,VALID,0,VALID,23.0769,VALID,46,VALID,0,
2010-08-06, 01:30:04,VALID,999.541,VALID,0,VALID,92.5397,VALID,0,VALID,23.0769,VALID,46,VALID,0,
2010-08-06, 01:31:04,VALID,999.524,VALID,0,VALID,92.5244,VALID,0,VALID,23.0769,VALID,46,VALID,0,
2010-08-06, 01:32:04,VALID,999.555,VALID,0,VALID,92.4786,VALID,0,VALID,23.0378,VALID,46,VALID,0,
2010-08-06, 01:33:04,VALID,999.5,VALID,0,VALID,92.41,VALID,0,VALID,23.0378,VALID,45,VALID,0,
2010-08-06, 01:34:04,VALID,999.524,VALID,0,VALID,92.3871,VALID,0,VALID,23.0183,VALID,37,VALID,0,
2010-08-06, 01:35:04,VALID,999.515,VALID,0,VALID,92.4176,VALID,0,VALID,23.0183,VALID,28,VALID,0,
2010-08-06, 01:36:04,VALID,999.517,VALID,0,VALID,92.4405,VALID,0,VALID,23.0183,VALID,19,VALID,0,
2010-08-06, 01:37:04,VALID,999.542,VALID,0,VALID,92.3413,VALID,0,VALID,22.9988,VALID,16,VALID,0,
2010-08-06, 01:38:04,VALID,999.524,VALID,0,VALID,92.2955,VALID,0,VALID,22.9988,VALID,14,VALID,0,
2010-08-06, 01:39:04,VALID,999.52,VALID,0,VALID,92.1124,VALID,0,VALID,22.9776,VALID,7,VALID,0,
2010-08-06, 01:40:04,VALID,999.506,VALID,0,VALID,91.8911,VALID,0,VALID,22.9776,VALID,7,VALID,0,
2010-08-06, 01:41:04,VALID,999.501,VALID,0,VALID,91.7157,VALID,0,VALID,22.9776,VALID,7,VALID,0,
2010-08-06, 01:42:04,VALID,999.511,VALID,0,VALID,91.5707,VALID,0,VALID,22.9776,VALID,31,VALID,0.797266,
2010-08-06, 01:43:04,VALID,999.504,VALID,0,VALID,91.3647,VALID,0,VALID,22.9776,VALID,31,VALID,0.476563,
2010-08-06, 01:44:04,VALID,999.491,VALID,0,VALID,91.1892,VALID,0,VALID,22.9988,VALID,31,VALID,0.316797,
2010-08-06, 01:45:04,VALID,999.524,VALID,0,VALID,91.09,VALID,0.112286,VALID,22.9776,VALID,31,VALID,0.204688,
2010-08-06, 01:46:04,VALID,999.487,VALID,0,VALID,91.0214,VALID,0,VALID,22.9971,VALID,31,VALID,0,
2010-08-06, 01:47:04,VALID,999.448,VALID,0,VALID,90.9374,VALID,0,VALID,23.0183,VALID,31,VALID,0,
2010-08-06, 01:48:04,VALID,999.437,VALID,0,VALID,90.8688,VALID,0,VALID,23.0361,VALID,31,VALID,0,
2010-08-06, 01:49:04,VALID,999.432,VALID,0,VALID,90.7467,VALID,0.112286,VALID,23.0361,VALID,31,VALID,0,
2010-08-06, 01:50:04,VALID,999.41,VALID,0,VALID,90.6704,VALID,0,VALID,23.0769,VALID,31,VALID,0,
2010-08-06, 01:51:04,VALID,999.42,VALID,0,VALID,90.7772,VALID,0,VALID,23.1159,VALID,31,VALID,0,
2010-08-06, 01:52:04,VALID,999.443,VALID,0,VALID,90.678,VALID,0,VALID,23.1141,VALID,31,VALID,0,
2010-08-06, 01:53:04,VALID,999.474,VALID,0,VALID,90.6017,VALID,0,VALID,23.1336,VALID,31,VALID,0,
2010-08-06, 01:54:04,VALID,999.443,VALID,0,VALID,90.5178,VALID,0,VALID,23.1354,VALID,31,VALID,0,
2010-08-06, 01:55:04,VALID,999.419,VALID,0,VALID,90.5254,VALID,0,VALID,23.1336,VALID,31,VALID,0,
2010-08-06, 01:56:04,VALID,999.458,VALID,0,VALID,90.678,VALID,0.112286,VALID,23.1336,VALID,31,VALID,0,
2010-08-06, 01:57:04,VALID,999.434,VALID,0,VALID,90.7543,VALID,0,VALID,23.1336,VALID,31,VALID,0,
2010-08-06, 01:58:04,VALID,999.393,VALID,0,VALID,90.8459,VALID,0,VALID,23.1549,VALID,31,VALID,0,
2010-08-06, 01:59:04,VALID,999.394,VALID,0,VALID,90.8459,VALID,0,VALID,23.1141,VALID,31,VALID,0,
2010-08-06, 02:00:04,VALID,999.404,VALID,0,VALID,90.8154,VALID,0,VALID,23.0946,VALID,31,VALID,0,
2010-08-06, 02:01:04,VALID,999.383,VALID,0,VALID,90.8383,VALID,0,VALID,23.0964,VALID,31,VALID,0,
2010-08-06, 02:02:04,VALID,999.389,VALID,0,VALID,90.8535,VALID,0,VALID,23.0556,VALID,31,VALID,0,
2010-08-06, 02:03:04,VALID,999.381,VALID,0,VALID,90.8917,VALID,0,VALID,23.0573,VALID,31,VALID,0,
2010-08-06, 02:04:04,VALID,999.349,VALID,0,VALID,90.8993,VALID,0,VALID,23.0573,VALID,31,VALID,0,
2010-08-06, 02:05:04,VALID,999.329,VALID,0,VALID,90.8611,VALID,0,VALID,23.0573,VALID,31,VALID,0,
2010-08-06, 02:06:04,VALID,999.327,VALID,0,VALID,90.8764,VALID,0,VALID,23.0166,VALID,31,VALID,0,
2010-08-06, 02:07:04,VALID,999.296,VALID,0,VALID,90.6399,VALID,0,VALID,23.0573,VALID,31,VALID,0,
2010-08-06, 02:08:04,VALID,999.286,VALID,0,VALID,90.5483,VALID,0,VALID,23.0964,VALID,31,VALID,0.467187,
2010-08-06, 02:09:04,VALID,999.271,VALID,0,VALID,90.2508,VALID,0,VALID,23.1141,VALID,43,VALID,0.566016,
2010-08-06, 02:10:04,VALID,999.281,VALID,0,VALID,90.0371,VALID,0,VALID,23.1744,VALID,60,VALID,0.576563,
2010-08-06, 02:11:04,VALID,999.264,VALID,0,VALID,89.9151,VALID,0,VALID,23.2134,VALID,60,VALID,0.286719,
2010-08-06, 02:12:04,VALID,999.256,VALID,0,VALID,89.8464,VALID,0,VALID,23.2117,VALID,60,VALID,0,
2010-08-06, 02:13:04,VALID,999.268,VALID,0,VALID,89.8846,VALID,0,VALID,23.2117,VALID,60,VALID,0,
2010-08-06, 02:14:04,VALID,999.238,VALID,0,VALID,90.0219,VALID,0,VALID,23.2329,VALID,60,VALID,0,
2010-08-06, 02:15:04,VALID,999.28,VALID,0,VALID,90.1211,VALID,0,VALID,23.2134,VALID,60,VALID,0,
2010-08-06, 02:16:04,VALID,999.272,VALID,0,VALID,90.1287,VALID,0,VALID,23.2134,VALID,61,VALID,0,
2010-08-06, 02:17:04,VALID,999.262,VALID,0,VALID,90.1516,VALID,0,VALID,23.1921,VALID,61,VALID,0,
2010-08-06, 02:18:04,VALID,999.267,VALID,0,VALID,90.2508,VALID,0,VALID,23.2134,VALID,61,VALID,0,
2010-08-06, 02:19:04,VALID,999.246,VALID,0,VALID,90.1211,VALID,0,VALID,23.1939,VALID,60,VALID,0,
2010-08-06, 02:20:04,VALID,999.244,VALID,0,VALID,89.9685,VALID,0,VALID,23.2329,VALID,48,VALID,0,
2010-08-06, 02:21:04,VALID,999.221,VALID,0,VALID,89.8998,VALID,0,VALID,23.2329,VALID,47,VALID,0,
2010-08-06, 02:22:04,VALID,999.231,VALID,0,VALID,89.9074,VALID,0,VALID,23.2312,VALID,47,VALID,0,
2010-08-06, 02:23:04,VALID,999.231,VALID,0,VALID,89.9837,VALID,0,VALID,23.2312,VALID,47,VALID,0,
2010-08-06, 02:24:04,VALID,999.236,VALID,0,VALID,90.0753,VALID,0,VALID,23.2329,VALID,47,VALID,0,
2010-08-06, 02:25:04,VALID,999.258,VALID,0,VALID,90.1897,VALID,0,VALID,23.2134,VALID,47,VALID,0,
2010-08-06, 02:26:04,VALID,999.238,VALID,0,VALID,90.2966,VALID,0.112286,VALID,23.1939,VALID,47,VALID,0,
2010-08-06, 02:27:04,VALID,999.242,VALID,0,VALID,90.4949,VALID,0,VALID,23.1531,VALID,47,VALID,0,
2010-08-06, 02:28:04,VALID,999.211,VALID,0,VALID,90.6323,VALID,0,VALID,23.1531,VALID,47,VALID,0,
2010-08-06, 02:29:04,VALID,999.193,VALID,0,VALID,90.7009,VALID,0,VALID,23.1726,VALID,47,VALID,0,
2010-08-06, 02:30:04,VALID,999.183,VALID,0,VALID,90.7391,VALID,0,VALID,23.1939,VALID,47,VALID,0,
2010-08-06, 02:31:04,VALID,999.148,VALID,0,VALID,90.7543,VALID,0,VALID,23.1921,VALID,47,VALID,0,
2010-08-06, 02:32:04,VALID,999.127,VALID,0,VALID,90.4873,VALID,0,VALID,23.2329,VALID,47,VALID,0,
2010-08-06, 02:33:04,VALID,999.085,VALID,0,VALID,90.3652,VALID,0,VALID,23.2312,VALID,47,VALID,0,
2010-08-06, 02:34:04,VALID,999.079,VALID,0,VALID,90.3042,VALID,0,VALID,23.2507,VALID,47,VALID,0,
2010-08-06, 02:35:04,VALID,999.063,VALID,0,VALID,90.2508,VALID,0,VALID,23.2507,VALID,47,VALID,0,
2010-08-06, 02:36:04,VALID,999.036,VALID,0,VALID,90.4873,VALID,0,VALID,23.2329,VALID,34,VALID,0,
2010-08-06, 02:37:04,VALID,999.042,VALID,0,VALID,90.4568,VALID,0,VALID,23.2134,VALID,34,VALID,0,
2010-08-06, 02:38:04,VALID,999.047,VALID,0,VALID,90.4263,VALID,0,VALID,23.1939,VALID,34,VALID,0.0484375,
2010-08-06, 02:39:04,VALID,999.067,VALID,0,VALID,90.3347,VALID,0,VALID,23.1744,VALID,28,VALID,0.507031,
2010-08-06, 02:40:04,VALID,999.029,VALID,0,VALID,90.2966,VALID,0,VALID,23.1354,VALID,25,VALID,0.869531,
2010-08-06, 02:41:04,VALID,999.044,VALID,0,VALID,90.1363,VALID,0,VALID,23.1159,VALID,18,VALID,0.983594,
2010-08-06, 02:42:04,VALID,999.06,VALID,0,VALID,90.06,VALID,0,VALID,23.0964,VALID,17,VALID,0.919141,
2010-08-06, 02:43:04,VALID,999.034,VALID,0,VALID,90.0295,VALID,0,VALID,23.0769,VALID,17,VALID,1.0293,
2010-08-06, 02:44:04,VALID,999.045,VALID,0,VALID,89.9685,VALID,0,VALID,23.0769,VALID,17,VALID,1.20898,
2010-08-06, 02:45:04,VALID,999.049,VALID,0,VALID,89.9456,VALID,0,VALID,23.0573,VALID,17,VALID,1.15937,
2010-08-06, 02:46:04,VALID,999.047,VALID,0,VALID,89.9303,VALID,0,VALID,23.0378,VALID,17,VALID,1.31758,
2010-08-06, 02:47:04,VALID,999.061,VALID,0,VALID,89.8846,VALID,0,VALID,23.0378,VALID,7,VALID,1.2457,
2010-08-06, 02:48:04,VALID,999.077,VALID,0,VALID,89.9303,VALID,0,VALID,23.0378,VALID,5,VALID,1.01367,
2010-08-06, 02:49:04,VALID,999.096,VALID,0,VALID,90.0219,VALID,0,VALID,23.0573,VALID,1,VALID,0.717969,
2010-08-06, 02:50:04,VALID,999.119,VALID,0,VALID,90.1592,VALID,0,VALID,23.0573,VALID,354,VALID,0.682813,
2010-08-06, 02:51:04,VALID,999.122,VALID,0,VALID,90.2813,VALID,0,VALID,23.0769,VALID,354,VALID,0.467578,
2010-08-06, 02:52:04,VALID,999.146,VALID,0,VALID,90.3194,VALID,0,VALID,23.0573,VALID,354,VALID,0.432031,
2010-08-06, 02:53:04,VALID,999.164,VALID,0,VALID,90.3118,VALID,0,VALID,23.0769,VALID,354,VALID,0.126172,
2010-08-06, 02:54:04,VALID,999.127,VALID,0,VALID,90.3576,VALID,0,VALID,23.0769,VALID,354,VALID,0,
2010-08-06, 02:55:04,VALID,999.158,VALID,0,VALID,90.3805,VALID,0,VALID,23.0573,VALID,354,VALID,0,
2010-08-06, 02:56:04,VALID,999.166,VALID,0,VALID,90.1058,VALID,0,VALID,23.0378,VALID,354,VALID,0,
2010-08-06, 02:57:04,VALID,999.153,VALID,0,VALID,89.9761,VALID,0,VALID,23.0573,VALID,354,VALID,0,
2010-08-06, 02:58:04,VALID,999.155,VALID,0,VALID,89.8311,VALID,0,VALID,23.0378,VALID,25,VALID,0.319141,
2010-08-06, 02:59:04,VALID,999.171,VALID,0,VALID,89.7625,VALID,0,VALID,23.0378,VALID,59,VALID,0.798047,
2010-08-06, 03:00:04,VALID,999.17,VALID,0,VALID,89.9227,VALID,0,VALID,23.0378,VALID,46,VALID,0.862109,
2010-08-06, 03:01:04,VALID,999.189,VALID,0,VALID,89.938,VALID,0,VALID,22.9988,VALID,37,VALID,1.0582,
2010-08-06, 03:02:04,VALID,999.209,VALID,0,VALID,90.06,VALID,0,VALID,22.9403,VALID,37,VALID,0.975391,
2010-08-06, 03:03:04,VALID,999.212,VALID,0,VALID,90.2203,VALID,0,VALID,22.9208,VALID,37,VALID,0.657812,
2010-08-06, 03:04:04,VALID,999.203,VALID,0,VALID,90.472,VALID,0,VALID,22.8818,VALID,37,VALID,0.530859,
2010-08-06, 03:05:04,VALID,999.199,VALID,0,VALID,90.7696,VALID,0,VALID,22.8835,VALID,37,VALID,0,
2010-08-06, 03:06:04,VALID,999.193,VALID,0,VALID,90.9146,VALID,0,VALID,22.8427,VALID,37,VALID,0,
2010-08-06, 03:07:04,VALID,999.198,VALID,0,VALID,90.9756,VALID,0,VALID,22.8232,VALID,37,VALID,0,
2010-08-06, 03:08:04,VALID,999.2,VALID,0,VALID,91.1053,VALID,0,VALID,22.8037,VALID,37,VALID,0,
2010-08-06, 03:09:04,VALID,999.204,VALID,0,VALID,91.2655,VALID,0,VALID,22.7647,VALID,37,VALID,0,
2010-08-06, 03:10:04,VALID,999.216,VALID,0,VALID,91.3952,VALID,0,VALID,22.7842,VALID,33,VALID,0,
2010-08-06, 03:11:04,VALID,999.213,VALID,0,VALID,91.3647,VALID,0,VALID,22.7842,VALID,33,VALID,1.0625,
2010-08-06, 03:12:04,VALID,999.227,VALID,0,VALID,91.3113,VALID,0,VALID,22.7647,VALID,33,VALID,1.02539,
2010-08-06, 03:13:04,VALID,999.215,VALID,0,VALID,91.3647,VALID,0,VALID,22.7257,VALID,33,VALID,0.930078,
2010-08-06, 03:14:04,VALID,999.165,VALID,0,VALID,91.4639,VALID,0,VALID,22.7062,VALID,33,VALID,0.971875,
2010-08-06, 03:15:04,VALID,999.176,VALID,0,VALID,91.5707,VALID,0,VALID,22.7062,VALID,33,VALID,0.684375,
2010-08-06, 03:16:04,VALID,999.195,VALID,0,VALID,91.5936,VALID,0,VALID,22.7257,VALID,59,VALID,0.744141,
2010-08-06, 03:17:04,VALID,999.197,VALID,0,VALID,91.8072,VALID,0,VALID,22.7452,VALID,72,VALID,0.937109,
2010-08-06, 03:18:04,VALID,999.197,VALID,0,VALID,91.8148,VALID,0,VALID,22.7647,VALID,72,VALID,0.972266,
2010-08-06, 03:19:04,VALID,999.172,VALID,0,VALID,91.8301,VALID,0,VALID,22.786,VALID,74,VALID,1.15,
2010-08-06, 03:20:04,VALID,999.175,VALID,0,VALID,91.8683,VALID,0,VALID,22.7647,VALID,75,VALID,1.03516,
2010-08-06, 03:21:04,VALID,999.19,VALID,0,VALID,91.8072,VALID,0,VALID,22.7842,VALID,85,VALID,1.10977,
2010-08-06, 03:22:04,VALID,999.167,VALID,0,VALID,91.6623,VALID,0,VALID,22.8055,VALID,85,VALID,1.07695,
2010-08-06, 03:23:04,VALID,999.182,VALID,0,VALID,91.6012,VALID,0,VALID,22.7842,VALID,95,VALID,1.10859,
2010-08-06, 03:24:04,VALID,999.198,VALID,0,VALID,91.708,VALID,0,VALID,22.763,VALID,96,VALID,0.955078,
2010-08-06, 03:25:04,VALID,999.193,VALID,0,VALID,91.7996,VALID,0,VALID,22.8037,VALID,85,VALID,1.03359,
2010-08-06, 03:26:04,VALID,999.18,VALID,0,VALID,91.8911,VALID,0,VALID,22.8037,VALID,85,VALID,0.987891,
2010-08-06, 03:27:04,VALID,999.176,VALID,0,VALID,92.0056,VALID,0,VALID,22.8037,VALID,85,VALID,0.824609,
2010-08-06, 03:28:04,VALID,999.191,VALID,0,VALID,92.0514,VALID,0,VALID,22.7825,VALID,85,VALID,0.683203,
2010-08-06, 03:29:04,VALID,999.213,VALID,0,VALID,92.1506,VALID,0,VALID,22.7842,VALID,97,VALID,0.516406,
2010-08-06, 03:30:04,VALID,999.232,VALID,0,VALID,92.0971,VALID,0,VALID,22.7842,VALID,93,VALID,0.83125,
2010-08-06, 03:31:04,VALID,999.187,VALID,0,VALID,91.9827,VALID,0,VALID,22.7842,VALID,92,VALID,0.686328,
2010-08-06, 03:32:04,VALID,999.208,VALID,0,VALID,91.8148,VALID,0,VALID,22.8037,VALID,92,VALID,0.651953,
2010-08-06, 03:33:04,VALID,999.231,VALID,0,VALID,91.7004,VALID,0,VALID,22.8037,VALID,92,VALID,0.488672,
2010-08-06, 03:34:04,VALID,999.224,VALID,0,VALID,91.4944,VALID,0,VALID,22.802,VALID,92,VALID,0.544141,
2010-08-06, 03:35:04,VALID,999.234,VALID,0,VALID,91.3494,VALID,0,VALID,22.8427,VALID,92,VALID,0.450781,
2010-08-06, 03:36:04,VALID,999.247,VALID,0,VALID,91.296,VALID,0,VALID,22.8445,VALID,92,VALID,0.366797,
2010-08-06, 03:37:04,VALID,999.232,VALID,0,VALID,91.2197,VALID,0,VALID,22.8427,VALID,92,VALID,0.493359,
2010-08-06, 03:38:04,VALID,999.223,VALID,0,VALID,91.1053,VALID,0,VALID,22.8427,VALID,92,VALID,0.371094,
2010-08-06, 03:39:04,VALID,999.23,VALID,0,VALID,91.0061,VALID,0,VALID,22.8427,VALID,92,VALID,0.215625,
2010-08-06, 03:40:04,VALID,999.189,VALID,0,VALID,90.9146,VALID,0,VALID,22.8427,VALID,92,VALID,0.0472656,
2010-08-06, 03:41:04,VALID,999.206,VALID,0,VALID,90.9298,VALID,0,VALID,22.8427,VALID,92,VALID,0,
2010-08-06, 03:42:04,VALID,999.175,VALID,0,VALID,91.1129,VALID,0,VALID,22.8427,VALID,92,VALID,0,
2010-08-06, 03:43:04,VALID,999.153,VALID,0,VALID,91.1358,VALID,0,VALID,22.8427,VALID,92,VALID,0.279297,
2010-08-06, 03:44:04,VALID,999.118,VALID,0,VALID,91.1587,VALID,0,VALID,22.8427,VALID,92,VALID,0.34375,
2010-08-06, 03:45:04,VALID,999.159,VALID,0,VALID,91.1206,VALID,0,VALID,22.8818,VALID,95,VALID,0.440625,
2010-08-06, 03:46:04,VALID,999.17,VALID,0,VALID,91.0443,VALID,0,VALID,22.9208,VALID,111,VALID,0.647266,
2010-08-06, 03:47:04,VALID,999.198,VALID,0,VALID,90.8993,VALID,0,VALID,22.9793,VALID,122,VALID,0.673047,
2010-08-06, 03:48:04,VALID,999.195,VALID,0,VALID,90.6857,VALID,0,VALID,23.0361,VALID,125,VALID,0.633984,
2010-08-06, 03:49:04,VALID,999.231,VALID,0,VALID,90.5102,VALID,0,VALID,23.0964,VALID,125,VALID,0,
2010-08-06, 03:50:04,VALID,999.234,VALID,0,VALID,90.3576,VALID,0,VALID,23.1549,VALID,125,VALID,0,
2010-08-06, 03:51:04,VALID,999.239,VALID,0,VALID,90.1745,VALID,0,VALID,23.1744,VALID,125,VALID,0,
2010-08-06, 03:52:04,VALID,999.258,VALID,0,VALID,89.9914,VALID,0,VALID,23.2134,VALID,125,VALID,0,
2010-08-06, 03:53:04,VALID,999.272,VALID,0,VALID,89.8769,VALID,0,VALID,23.2134,VALID,125,VALID,0,
2010-08-06, 03:54:04,VALID,999.269,VALID,0,VALID,89.8159,VALID,0,VALID,23.2134,VALID,238,VALID,0,